Weather History for VIJP - September, 2012

Change the Weather History Date:

Sunday, September 30, 2012

  Actual Average Record
Temperature  
Mean Temperature 83 °F -  
Max Temperature 95 °F - - ()
Min Temperature 71 °F - - ()
Cooling Degree Days 18    
Growing Degree Days 33 (Base 50)    
Moisture  
Dew Point 64 °F    
Average Humidity 53    
Maximum Humidity 83    
Minimum Humidity 22    
Precipitation  
Precipitation 0.00 in - - ()
Sea Level Pressure  
Sea Level Pressure 29.87 in    
Wind  
Wind Speed 1 mph ()    
Max Wind Speed 7 mph    
Max Gust Speed -    
Visibility 2.0 miles    
Events      
T = Trace of Precipitation, MM = Missing Value Source: Averaged Metar Reports

Daily Weather History Graph

Daily Weather History Graph

Search for Another Location

Airport or City:

Trip Planner

Search our weather history database for the weather conditions in past years. The results will help you decide how hot, cold, wet, or windy it might be!

Date:

Astronomy

Sep. 30, 2012 Rise Set
Actual Time 6:18 AM IST 6:14 PM IST
Civil Twilight 5:55 AM IST 6:37 PM IST
Nautical Twilight 5:28 AM IST 7:04 PM IST
Astronomical Twilight 5:01 AM IST 7:31 PM IST
Moon 6:11 PM IST (9/30) 6:17 AM IST (9/30)
Length of Visible Light 12h 41m
Length of Day
11h 55m
Full, 100% of the Moon is Illuminated
Sep 30
Full
Oct 8
Last Quarter
Oct 15
New
Oct 22
First Quarter
Oct 30
Full

Hourly Weather History & Observations

Time (IST) Temp. Heat Index Dew Point Humidity Pressure Visibility Wind Dir Wind Speed Gust Speed Precip Events Conditions
12:00 AM 77.0 °F - 66.2 °F 69% 29.89 in 2.5 mi Calm Calm - N/A   Haze
1:00 AM 77.0 °F - 66.2 °F 69% 29.89 in 2.5 mi Calm Calm - N/A   Haze
2:30 AM 76 °F - 67 °F 65% 29.80 in 2 mi Calm Calm - -   Haze
3:00 AM 75.2 °F - 66.2 °F 73% 30.09 in 2.5 mi Calm Calm - N/A   Haze
4:00 AM 75.2 °F - 66.2 °F 73% 29.86 in 2.5 mi Calm Calm - N/A   Haze
5:00 AM 75.2 °F - 66.2 °F 73% 29.86 in 2.2 mi Calm Calm - N/A   Haze
5:30 AM 73 °F - 65 °F 68% 29.82 in 1 mi Calm Calm - -   Mist
5:30 AM 73.4 °F - 66.2 °F 78% 29.86 in 2.2 mi Calm Calm - N/A   Haze
6:00 AM 71.6 °F - 66.2 °F 83% 29.89 in 2.2 mi Calm Calm - N/A   Partly Cloudy
7:00 AM 73.4 °F - 64.4 °F 73% 29.92 in 1.6 mi Calm Calm - N/A   Partly Cloudy
7:30 AM 75.2 °F - 66.2 °F 73% 29.92 in 1.6 mi Calm Calm - N/A   Haze
8:00 AM 80.6 °F 82.7 °F 66.2 °F 61% 29.92 in 1.6 mi Calm Calm - N/A   Haze
9:00 AM 86.0 °F 88.2 °F 66.2 °F 51% 29.95 in 1.6 mi Variable 2.3 mph - N/A   Haze
10:00 AM 89.6 °F 92.2 °F 66.2 °F 46% 29.95 in 1.9 mi Variable 3.5 mph - N/A   Haze
11:00 AM 91.4 °F 93.2 °F 64.4 °F 41% 29.95 in 2.5 mi Calm Calm - N/A   Haze
11:30 AM 92 °F - 63 °F 28% 29.84 in 1 mi NE 2.3 mph - -   Haze
12:00 PM 93.2 °F 94.9 °F 64.4 °F 38% 29.92 in 2.5 mi Variable 2.3 mph - N/A   Haze
1:00 PM 95.0 °F 96.0 °F 62.6 °F 34% 29.89 in 2.5 mi Variable 5.8 mph - N/A   Haze
2:00 PM 95.0 °F 96.0 °F 62.6 °F 34% 29.86 in 2.5 mi Variable 6.9 mph - N/A   Haze
3:00 PM 95.0 °F 94.4 °F 59.0 °F 30% 29.83 in 2.5 mi Variable 6.9 mph - N/A   Haze
4:00 PM 95.0 °F 94.4 °F 59.0 °F 30% 29.83 in 2.5 mi Variable 5.8 mph - N/A   Haze
5:00 PM 93.2 °F 92.6 °F 59.0 °F 32% 29.80 in 2.5 mi Variable 5.8 mph - N/A   Haze
5:30 PM 93 °F - 59 °F 22% 29.72 in 2 mi SW 6.9 mph - -   Haze
7:00 PM 86.0 °F 85.4 °F 59.0 °F 40% 29.83 in 1.9 mi Calm Calm - N/A   Haze
8:00 PM 84.2 °F 83.8 °F 59.0 °F 42% 29.83 in 1.9 mi Calm Calm - N/A   Haze
8:30 PM 82 °F - 63 °F 43% 29.77 in 1 mi Calm Calm - -   Haze
9:00 PM 80.6 °F 81.8 °F 62.6 °F 54% 29.86 in 1.9 mi Calm Calm - N/A   Haze
10:00 PM 80.6 °F 81.8 °F 62.6 °F 54% 29.86 in 1.9 mi Calm Calm - N/A   Haze
11:00 PM 78.8 °F - 62.6 °F 57% 29.89 in 1.9 mi Calm Calm - N/A   Haze
11:30 PM 78 °F - 64 °F 53% 29.80 in 1 mi Calm Calm - -   Haze